This demonstration page uses our WeatherBlox Daily Observations layout. Learn more.

Left ArrowRight Arrow

Hourly Observations for March 7, 2019

Temp ( °F °C ) Dew Point ( °F °C ) Humidity (%) Winds ( mph kmh ) Pressure ( in mb ) Visibility ( mi km ) Precip ( " mm )
12:52 am 00:52 Cloudy 28 -2.2 16 -8.9 60 60 Calm 30.28 1025 10 16 0.00 0.00
1:52 am 01:52 Cloudy with Light Snow 26 -3.3 19 -7.2 75 75 Calm 30.29 1026 5 8 0.00 0.03
2:03 am 02:03 Cloudy with Light Snow 27 -2.8 18 -7.8 69 69 E 7 11 30.32 1027 2 3 0.00 0.03
2:23 am 02:23 Cloudy with Light Snow 26 -3.3 18 -7.8 71 71 E 9 15 30.33 1027 2 2 0.00 0.03
2:52 am 02:52 Cloudy with Light Snow 25 -3.9 19 -7.2 78 78 E 13 20 30.28 1025 1 2 0.01 0.25
3:52 am 03:52 Mostly Cloudy with Light Snow 24 -4.4 19 -7.2 81 81 E 12 19 30.26 1025 1 2 0.02 0.51
4:52 am 04:52 Mostly Cloudy with Light Snow 22 -5.6 17 -8.3 82 82 E 10 17 30.25 1025 1 2 0.03 0.76
5:01 am 05:01 Mostly Cloudy with Light Snow 21 -6.1 16 -8.9 81 81 E 14 22 30.30 1026 1 1 0.00 0.03
5:52 am 05:52 Mostly Cloudy with Light Snow 21 -6.1 16 -8.9 81 81 E 9 15 30.26 1025 1 1 0.04 1.02
6:52 am 06:52 Mostly Cloudy with Light Snow 20 -6.7 16 -8.9 85 85 E 8 13 30.24 1024 1 1 0.04 1.02
7:09 am 07:09 Mostly Cloudy with Light Snow 20 -6.7 16 -8.9 85 85 E 8 13 30.30 1026 1 2 0.02 0.51
7:52 am 07:52 Cloudy with Light Snow 20 -6.7 15 -9.4 81 81 E 12 19 30.26 1025 2 2 0.03 0.76
8:25 am 08:25 Cloudy with Light Snow 21 -6.1 15 -9.4 78 78 ENE 9 15 30.32 1027 4 6 0.01 0.25
8:52 am 08:52 Cloudy with Light Snow 21 -6.1 15 -9.4 78 78 E 9 15 30.26 1025 5 8 0.01 0.25
9:08 am 09:08 Cloudy with Light Snow 21 -6.1 15 -9.4 78 78 ENE 7 11 30.30 1026 9 14 0.00 0.03
9:52 am 09:52 Cloudy 21 -6.1 15 -9.4 78 78 E 7 11 30.26 1025 10 16 0.00 0.03
10:52 am 10:52 Cloudy 22 -5.6 16 -8.9 78 78 E 12 19 30.24 1024 10 16 0.00 0.00
11:52 am 11:52 Cloudy 23 -5 17 -8.3 78 78 E 10 17 30.24 1024 10 16 0.00 0.00
12:31 pm 12:31 Cloudy 24 -4.4 18 -7.8 77 77 E 10 17 30.25 1024 10 16 0.00 0.00
12:52 pm 12:52 Cloudy 25 -3.9 18 -7.8 75 75 E 13 20 30.20 1023 10 16 0.00 0.00
1:52 pm 13:52 Cloudy 26 -3.3 19 -7.2 75 75 ESE 12 19 30.16 1021 10 16 0.00 0.00
2:13 pm 14:13 Cloudy 26 -3.3 19 -7.2 75 75 E 9 15 30.19 1022 10 16 0.00 0.00
2:52 pm 14:52 Cloudy 26 -3.3 19 -7.2 75 75 E 10 17 30.14 1021 9 14 0.00 0.00
3:52 pm 15:52 Cloudy 27 -2.8 20 -6.7 75 75 ENE 9 15 30.12 1020 10 16 0.00 0.00
4:52 pm 16:52 Cloudy 26 -3.3 20 -6.7 78 78 E 9 15 30.11 1020 10 16 0.00 0.00
5:52 pm 17:52 Cloudy 26 -3.3 20 -6.7 78 78 E 8 13 30.12 1020 10 16 0.00 0.00
6:52 pm 18:52 Cloudy 26 -3.3 20 -6.7 78 78 ESE 6 9 30.14 1021 10 16 0.00 0.00
7:52 pm 19:52 Cloudy 26 -3.3 20 -6.7 78 78 ESE 7 11 30.13 1020 10 16 0.00 0.00
8:52 pm 20:52 Cloudy 26 -3.3 21 -6.1 81 81 E 3 6 30.12 1020 10 16 0.00 0.00
9:52 pm 21:52 Cloudy 27 -2.8 21 -6.1 78 78 ENE 3 6 30.13 1020 10 16 0.00 0.00
10:52 pm 22:52 Cloudy 27 -2.8 21 -6.1 78 78 E 6 9 30.12 1020 10 16 0.00 0.00
11:52 pm 23:52 Cloudy 27 -2.8 21 -6.1 78 78 E 7 11 30.10 1019 10 16 0.00 0.00

Powered by AerisWeather